Location: Unspecified
(42.3650°N, 71.1030°W)
Time: 04:00:22
(UTC+00:00)

Courier 1B Rocket - Pass Details

Date: 25 June 2024
Orbit: 920 x 1201 km, 28.2° (Epoch: 17 July)

Event Time Altitude Azimuth Distance (km) Brightness Sun altitude
Exits shadow 06:22:35 18° 150° (SSE) 2,213 6.5 -20.7°
Drops below altitude 10° 06:25:43 10° 123° (ESE) 2,788 7.3 -20.4°
Sets 06:29:18 0° 107° (ESE) 3,797 8.2 -20.2°
